ATALAIAS
ESTADO DO RIO DE JANEIRO
ZONA DE PRATICAGEM 15
RIO DE JANEIRO
Rua da Assembléia, 10/2904
Centro - Rio de Janeiro - CEP 20011-901
Tels: (21)2516.1416
Fax: (21)3553-0525
atalaiario@praticagem-rj.org.br
MANGARATIBA
Estrada RJ 14, 118 casa 02
Ibicuí - Mangaratiba - CEP 23860-000
Tels: (21)2789.1278|2789.1344

atalaiamangaratiba@praticagem-rj.org.br
Em virtude dos Jogos Paralímpicos RIO2016, a CPRJ estabeleceu os seguintes períodos de interdição do tráfego marítimo no interior da Baía de Guanabara:
De 31 de agosto a 17 de setembro, das 11:00 h às 18:00 h, ao Sul do través da cabeceira nº 2 (Norte) do Aeroporto Santos Dummont até as proximidades da Ilha Rasa
POB áreas/períodos de interdição definidos em acordo com a AM:
Manobras diurnas - saída até às 08:30 h e entrada até 09:00 h
Manobras noturnas - a partir de 19:00 h
 
ACESSO AO SISTEMA
USUÁRIOSENHA
CONSULTA 
BAIA DE GUANABARA
BAIA DE SEPETIBA
BAIA DE ANGRA
PORTO DE FORNO
PORTO DO AÇÚ
Dicas & Orientações
  • Esta consulta apresenta todas as manobras encerradas que iniciaram entre o período fornecido no Quadro de Seleção, limitadas a 100 ocorrências.
  • As datas limites devem ser informadas no formato dd/mm/aaaa.
QUADRO DE SELEÇÃO
DEATÉ
  
COMPLEXO PORTUÁRIODEATÉ
BAIA DE GUANABARA24/08/201626/08/2016
 NAVIOINÍCIOTÉRMINOMANOBRADEPARA
1SKANDI PARATY24/08 00:0024/08 01:00SAÍDASIDERURG2 
2FAR SANTANA24/08 02:0024/08 02:45SAÍDASIDERURG2 
3A. H. LIGURIA24/08 03:0024/08 04:00ENTRADA SIDERURG2
4KELLY ANN CANDIES24/08 06:1524/08 07:00ENTRADA BRASA
5EAGLE PARAIBA24/08 07:4024/08 10:30ENTRADA PP2
6MAERSK LANCER24/08 08:0024/08 09:15ENTRADA SIDERÚRG3
7TOISA VALIANT24/08 08:0024/08 09:00ENTRADA TERM.OLEO
8KEN GOH24/08 09:0024/08 11:00ENTRADA A10
9A. H. LIGURIA24/08 09:3024/08 10:40SAÍDASIDERURG2 
10MARIDIVE 60224/08 10:5024/08 12:05MUDANÇALARGOLARGO
11NORD TRAVELLER24/08 11:3024/08 12:30SAÍDAVISITA N 
12MONTE TAMARO24/08 15:3024/08 16:40SAÍDATECONT1 
13SALLIE KNUTSEN24/08 16:0524/08 17:15ENTRADA VISITA N
14THORCO LOGOS24/08 17:3024/08 18:10SAÍDAFEITICEIRA 
15JANET C24/08 17:3024/08 18:15SAÍDAVISITA S 
16MAERSK LANCER24/08 17:4524/08 18:45SAÍDASIDERÚRG3 
17TORM SAN JACINTO24/08 18:3024/08 20:20ENTRADA PS1
18EVEREST SPIRIT24/08 19:0024/08 20:00SAÍDAAF 8 
19CLIPPER NEWARK24/08 19:0024/08 20:15SAÍDASIDERURG1 
20JAN BLANKEN24/08 20:0024/08 20:40SAÍDAAF 6 OESTE 
21NORD EXPLORER24/08 21:0024/08 22:10SAÍDAA9 
22DEEPSTIM BRASIL I24/08 23:0025/08 00:00MUDANÇAAF 6 OESTEA14
23SILVER CLOUD24/08 23:4025/08 00:30SAÍDAA4 
24BBC LOUISIANA25/08 00:4025/08 02:10ENTRADA A9
25KELLY ANN CANDIES25/08 01:3525/08 02:15SAÍDABRASA 
26TOPEKA25/08 04:0025/08 05:30ENTRADA TECONT4
27WORLD EMERALD25/08 05:0025/08 06:15ENTRADA NITPORTOS
28MSC ORIANE25/08 06:0025/08 07:30ENTRADA TECONT3
29ASSO TRENTUNO25/08 06:1525/08 07:00ENTRADA LARGO
30LELYSTAD25/08 06:2025/08 07:00ENTRADA 2F04-CIAW
31MAERSK BOULDER25/08 07:0525/08 08:20MUDANÇALARGOSIDERURG2
32DANMARK25/08 08:0025/08 08:45SAÍDABOTAFOGO 
33TOISA VALIANT25/08 09:0025/08 10:00SAÍDATERM.OLEO 
34MAERSK BOULDER25/08 09:1025/08 10:10SAÍDASIDERURG2 
35YM RIGHTNESS25/08 13:2525/08 15:08ENTRADA VISITA S
36POTENGI25/08 16:0025/08 17:05MUDANÇALARGOLARGO
37SALLIE KNUTSEN25/08 17:0025/08 17:30SAÍDAVISITA N 
38ASSO TRENTUNO25/08 17:0025/08 17:40SAÍDALARGO 
39SEA PANTHER25/08 17:0025/08 18:00ENTRADA AF 6 OESTE
40PEDREIRAS25/08 18:2025/08 19:50SAÍDAXARÉU 
41URUGUAY REEFER25/08 18:3025/08 19:15ENTRADA FEITICEIRA
42MSC ORIANE25/08 20:2025/08 21:35SAÍDATECONT3 
43TOPEKA25/08 21:0525/08 22:50SAÍDATECONT4 
44MSC GENESIS25/08 22:2626/08 00:21ENTRADA TECONT3
45OCEAN TOMO25/08 23:1026/08 01:05ENTRADA A8.9